User: anonymous   Login
Location: Pian di Sc�
(43.6333°N, 11.5500°E)
Time: 16:26:33
(UTC+00:00)
Language:

Cosmos 2219 - Orbit

View from above orbital plane
View from above orbital plane
View from above satellite
View from above satellite

Ground track
Ground track

The orbit data is extracted from the following two-line orbital elements,

1 22219U 92076A   20292.90599065 +.00000215 +00000-0 +13883-3 0  9992
2 22219 071.0610 169.8215 0019582 321.5045 038.4679 14.13654379440266
Epoch (UTC): 18 October 2020 21:44:37
Eccentricity: 0.0019582
inclination: 71.0610°
perigee height: 833 km
apogee height: 861 km
right ascension of ascending node: 169.8215°
argument of perigee: 321.5045°
revolutions per day: 14.13654379
mean anomaly at epoch: 38.4679°
orbit number at epoch: 44026

The dashed part of the orbit path shows where the satellite is in the earth's shadow,  

DLR